Dades meteomassalio
Diari Summary for Juny 13, 2017 Units:  Metric    English   Both
« Previous Day
Next Day »
Diari Semanal Mensual Anual Personalitzat
  Maxima: Minima: Mijana:
Temperatura: -17.8 °C -9.2 °C -2.9 °C
Rosada: -17.8 °C -12.9 °C -10.6 °C
Humitat: Humidity % 25 % 46 %
Velocitat del vent: 0 km/h 0 km/h 15.1 km/h
Racha vent: 0 km/h - -
Vent:- - ESE
Pressio: 0 hPa 34198.6 hPa -
Pluja: 0 mm    
Historical Graphs
 
 
Tabular Data for Juny 13, 2017
Time Temperature Dew Point Pressure Wind Wind Speed Wind Gust Humidity Rainfall Rate (Hourly) solar Conditions
-17.8 °C -17.8 °C 0 hPa Calm     Humidity % 0 mm SolarRadiationWatts/m^2 W/m2 Conditions
00:03 -4.2 °C -11.3 °C 34327.3 hPa Calm     45 % 0 mm 0.0 W/m2 CLR
00:08 -4.2 °C -11.3 °C 34327.3 hPa Calm     45 % 0 mm 0.0 W/m2 CLR
00:13 -4.3 °C -11.3 °C 34327.3 hPa Calm     45 % 0 mm 0.0 W/m2 CLR
00:18 -4.4 °C -10.9 °C 34327.3 hPa Calm     48 % 0 mm 0.0 W/m2 CLR
00:23 -4.7 °C -10.8 °C 34327.3 hPa Calm     50 % 0 mm 0.0 W/m2 CLR
00:28 -4.8 °C -10.8 °C 34327.3 hPa Calm     51 % 0 mm 0.0 W/m2 CLR
00:33 -5 °C -10.9 °C 34327.3 hPa Calm     51 % 0 mm 0.0 W/m2 CLR
00:38 -5.1 °C -10.7 °C 34327.3 hPa Calm     53 % 0 mm 0.0 W/m2 CLR
00:43 -5.3 °C -10.7 °C 34327.3 hPa Calm     54 % 0 mm 0.0 W/m2 CLR
00:48 -5.4 °C -10.7 °C 34327.3 hPa Calm     55 % 0 mm 0.0 W/m2 CLR
00:53 -5.6 °C -10.7 °C 34327.3 hPa Calm     56 % 0 mm 0.0 W/m2 CLR
00:58 -5.7 °C -10.7 °C 34327.3 hPa Calm     57 % 0 mm 0.0 W/m2 CLR
01:03 -5.8 °C -10.8 °C 34327.3 hPa Calm     57 % 0 mm 0.0 W/m2 CLR
01:08 -5.9 °C -10.7 °C 34327.3 hPa Calm     58 % 0 mm 0.0 W/m2 CLR
01:13 -6.1 °C -10.7 °C 34313.7 hPa Calm     59 % 0 mm 0.0 W/m2 CLR
01:18 -6.2 °C -10.9 °C 34313.7 hPa Calm     58 % 0 mm 0.0 W/m2 CLR
01:23 -6.3 °C -10.9 °C 34313.7 hPa Calm     59 % 0 mm 0.0 W/m2 CLR
01:28 -6.4 °C -11 °C 34313.7 hPa Calm     59 % 0 mm 0.0 W/m2 CLR
01:33 -6.5 °C -10.9 °C 34313.7 hPa Calm     60 % 0 mm 0.0 W/m2 CLR
01:38 -6.5 °C -10.9 °C 34313.7 hPa Calm     60 % 0 mm 0.0 W/m2 CLR
01:43 -6.6 °C -10.9 °C 34313.7 hPa Calm     61 % 0 mm 0.0 W/m2 CLR
01:48 -6.7 °C -10.8 °C 34313.7 hPa Calm     62 % 0 mm 0.0 W/m2 CLR
01:53 -6.8 °C -10.8 °C 34303.6 hPa Calm     63 % 0 mm 0.0 W/m2 CLR
01:58 -6.9 °C -10.9 °C 34303.6 hPa Calm     63 % 0 mm 0.0 W/m2 CLR
02:03 -6.9 °C -10.8 °C 34303.6 hPa Calm     64 % 0 mm 0.0 W/m2 CLR
02:08 -7.1 °C -10.9 °C 34303.6 hPa Calm     64 % 0 mm 0.0 W/m2 CLR
02:13 -7.1 °C -10.8 °C 34303.6 hPa Calm     65 % 0 mm 0.0 W/m2 CLR
02:18 -7.2 °C -10.9 °C 34303.6 hPa Calm     65 % 0 mm 0.0 W/m2 CLR
02:23 -7.2 °C -10.8 °C 34303.6 hPa Calm     66 % 0 mm 0.0 W/m2 CLR
02:28 -7.3 °C -10.8 °C 34303.6 hPa Calm     67 % 0 mm 0.0 W/m2 CLR
02:33 -7.4 °C -10.9 °C 34303.6 hPa Calm     67 % 0 mm 0.0 W/m2 CLR
02:38 -7.4 °C -10.9 °C 34303.6 hPa Calm     67 % 0 mm 0.0 W/m2 CLR
02:43 -7.5 °C -10.8 °C 34303.6 hPa Calm     68 % 0 mm 0.0 W/m2 CLR
02:48 -7.6 °C -11 °C 34303.6 hPa Calm     67 % 0 mm 0.0 W/m2 CLR
02:53 -7.6 °C -11.1 °C 34303.6 hPa Calm     67 % 0 mm 0.0 W/m2 CLR
02:58 -7.7 °C -11.1 °C 34303.6 hPa Calm     67 % 0 mm 0.0 W/m2 CLR
03:03 -7.7 °C -11.1 °C 34303.6 hPa Calm     68 % 0 mm 0.0 W/m2 CLR
03:08 -7.8 °C -11 °C 34303.6 hPa Calm     69 % 0 mm 0.0 W/m2 CLR
03:13 -7.9 °C -11.2 °C 34303.6 hPa Calm     68 % 0 mm 0.0 W/m2 CLR
03:18 -7.9 °C -11.2 °C 34303.6 hPa Calm     69 % 0 mm 0.0 W/m2 CLR
03:23 -7.9 °C -11.2 °C 34303.6 hPa Calm     69 % 0 mm 0.0 W/m2 CLR
03:28 -7.9 °C -11 °C 34303.6 hPa Calm     70 % 0 mm 0.0 W/m2 CLR
03:33 -7.9 °C -11.1 °C 34303.6 hPa Calm     70 % 0 mm 0.0 W/m2 CLR
03:38 -7.9 °C -11.1 °C 34303.6 hPa Calm     70 % 0 mm 0.0 W/m2 CLR
03:43 -8 °C -11.1 °C 34303.6 hPa Calm     70 % 0 mm 0.0 W/m2 CLR
03:48 -8.1 °C -11.2 °C 34293.4 hPa Calm     70 % 0 mm 0.0 W/m2 CLR
03:50 -8.1 °C -11.2 °C 34293.4 hPa Calm     70 % 0 mm 0.0 W/m2 CLR
03:54 -8.2 °C -11.2 °C 34303.6 hPa Calm     71 % 0 mm 0.0 W/m2 CLR
04:00 -8.3 °C -11.2 °C 34303.6 hPa Calm     71 % 0 mm 0.0 W/m2 CLR
04:05 -8.3 °C -11.2 °C 34303.6 hPa Calm     72 % 0 mm 0.0 W/m2 CLR
04:15 -8.4 °C -11.2 °C 34293.4 hPa Calm     73 % 0 mm 0.0 W/m2 CLR
04:20 -8.4 °C -11.2 °C 34293.4 hPa Calm     73 % 0 mm 0.0 W/m2 CLR
04:25 -8.5 °C -11.2 °C 34293.4 hPa Calm     73 % 0 mm 0.0 W/m2 CLR
04:30 -8.6 °C -11.2 °C 34293.4 hPa Calm     74 % 0 mm 0.0 W/m2 CLR
04:35 -8.6 °C -11.2 °C 34293.4 hPa Calm     74 % 0 mm 0.0 W/m2 CLR
04:40 -8.7 °C -11.1 °C 34293.4 hPa Calm     75 % 0 mm 0.0 W/m2 CLR
04:45 -8.7 °C -11.2 °C 34293.4 hPa Calm     75 % 0 mm 0.0 W/m2 CLR
04:50 -8.7 °C -11.2 °C 34293.4 hPa Calm     75 % 0 mm 0.0 W/m2 CLR
04:56 -8.8 °C -11.1 °C 34303.6 hPa Calm     76 % 0 mm 0.0 W/m2 CLR
05:01 -8.8 °C -11.1 °C 34303.6 hPa Calm     76 % 0 mm 0.0 W/m2 CLR
05:06 -8.8 °C -11.2 °C 34303.6 hPa Calm     76 % 0 mm 0.0 W/m2 CLR
05:11 -8.8 °C -11.2 °C 34303.6 hPa Calm     76 % 0 mm 0.0 W/m2 CLR
05:16 -8.8 °C -11.3 °C 34303.6 hPa Calm     75 % 0 mm 0.0 W/m2 CLR
05:21 -8.8 °C -11.2 °C 34293.4 hPa Calm     76 % 0 mm 0.0 W/m2 CLR
05:26 -8.9 °C -11.3 °C 34303.6 hPa Calm     76 % 0 mm 0.0 W/m2 CLR
05:31 -8.9 °C -11.2 °C 34303.6 hPa Calm     76 % 0 mm 0.0 W/m2 CLR
05:36 -8.9 °C -11.2 °C 34303.6 hPa Calm     76 % 0 mm 0.0 W/m2 CLR
05:46 -9 °C -11.2 °C 34303.6 hPa Calm     77 % 0 mm 0.0 W/m2 CLR
05:51 -8.9 °C -11.2 °C 34303.6 hPa Calm     77 % 0 mm 0.0 W/m2 CLR
05:56 -9 °C -11.2 °C 34303.6 hPa Calm     77 % 0 mm 0.0 W/m2 CLR
06:01 -9.1 °C -11.3 °C 34303.6 hPa Calm     77 % 0 mm 0.0 W/m2 CLR
06:06 -9.1 °C -11.3 °C 34303.6 hPa Calm     77 % 0 mm 0.0 W/m2 CLR
06:11 -9.1 °C -11.3 °C 34303.6 hPa Calm     78 % 0 mm 0.0 W/m2 CLR
06:16 -9.1 °C -11.3 °C 34303.6 hPa Calm     78 % 0 mm 0.0 W/m2 OVC
06:21 -9.2 °C -11.2 °C 34303.6 hPa Calm     79 % 0 mm 0.0 W/m2 OVC
06:26 -9.2 °C -11.2 °C 34303.6 hPa Calm     79 % 0 mm 0.0 W/m2 OVC
06:31 -9.2 °C -11.2 °C 34303.6 hPa Calm     79 % 0 mm 5.0 W/m2 OVC
06:36 -9.2 °C -11.2 °C 34303.6 hPa Calm     79 % 0 mm 7.0 W/m2 BKN
06:41 -9.2 °C -11.2 °C 34303.6 hPa Calm     79 % 0 mm 9.0 W/m2 BKN
06:46 -9.2 °C -11.2 °C 34303.6 hPa Calm     79 % 0 mm 11.0 W/m2 BKN
06:51 -9.2 °C -11.2 °C 34313.7 hPa Calm     79 % 0 mm 12.0 W/m2 BKN
06:56 -9.2 °C -11.2 °C 34303.6 hPa Calm     79 % 0 mm 14.0 W/m2 BKN
07:01 -9.2 °C -11.2 °C 34313.7 hPa Calm     80 % 0 mm 18.0 W/m2 BKN
07:06 -9.2 °C -11.2 °C 34313.7 hPa Calm     80 % 0 mm 26.0 W/m2 BKN
07:11 -9.2 °C -11.1 °C 34313.7 hPa Calm     80 % 0 mm 40.0 W/m2 BKN
07:16 -9.1 °C -11 °C 34313.7 hPa Calm     80 % 0 mm 49.0 W/m2 SCT
07:21 -8.9 °C -10.9 °C 34313.7 hPa Calm     80 % 0 mm 62.0 W/m2 SCT
07:26 -8.8 °C -10.8 °C 34313.7 hPa Calm     79 % 0 mm 74.0 W/m2 FEW
07:31 -8.7 °C -10.8 °C 34313.7 hPa Calm     78 % 0 mm 90.0 W/m2 FEW
07:36 -8.4 °C -10.6 °C 34313.7 hPa Calm     78 % 0 mm 104.0 W/m2 CLR
07:41 -8.2 °C -10.6 °C 34313.7 hPa Calm     76 % 0 mm 120.0 W/m2 CLR
07:46 -8 °C -10.6 °C 34313.7 hPa Calm     74 % 0 mm 135.0 W/m2 CLR
07:51 -7.7 °C -10.6 °C 34327.3 hPa Calm     72 % 0 mm 151.0 W/m2 CLR
07:56 -7.6 °C -10.5 °C 34313.7 hPa Calm     71 % 0 mm 172.0 W/m2 CLR
08:01 -7.3 °C -10.3 °C 34313.7 hPa Calm     71 % 0 mm 188.0 W/m2 CLR
08:06 -6.9 °C -10.2 °C 34313.7 hPa Calm     69 % 0 mm 206.0 W/m2 CLR
08:11 -6.6 °C -10.1 °C 34313.7 hPa Calm     67 % 0 mm 221.0 W/m2 CLR
08:16 -6.2 °C -9.9 °C 34313.7 hPa Calm     66 % 0 mm 239.0 W/m2 CLR
08:21 -5.9 °C -10.1 °C 34313.7 hPa Calm     62 % 0 mm 255.0 W/m2 CLR
08:26 -5.8 °C -9.8 °C 34313.7 hPa Calm     63 % 0 mm 269.0 W/m2 CLR
08:31 -5.6 °C -9.8 °C 34327.3 hPa Calm     62 % 0 mm 283.0 W/m2 CLR
08:36 -5.3 °C -9.8 °C 34313.7 hPa Calm     60 % 0 mm 301.0 W/m2 CLR
08:41 -4.9 °C -9.5 °C 34313.7 hPa Calm     60 % 0 mm 315.0 W/m2 CLR
08:46 -4.7 °C -9.4 °C 34327.3 hPa Calm     59 % 0 mm 330.0 W/m2 CLR
08:51 -4.5 °C -9.7 °C 34313.7 hPa Calm     56 % 0 mm 346.0 W/m2 CLR
08:56 -4.4 °C -9.6 °C 34313.7 hPa Calm     56 % 0 mm 364.0 W/m2 CLR
09:01 -4.5 °C -9.8 °C 34313.7 hPa Calm     55 % 0 mm 378.0 W/m2 CLR
09:06 -4.3 °C -9.6 °C 34313.7 hPa Calm     56 % 0 mm 392.0 W/m2 CLR
09:11 -4.2 °C -9.5 °C 34313.7 hPa Calm     55 % 0 mm 408.0 W/m2 CLR
09:16 -3.9 °C -9.6 °C 34313.7 hPa Calm     53 % 0 mm 424.0 W/m2 CLR
09:21 -3.7 °C -9.7 °C 34313.7 hPa Calm     51 % 0 mm 441.0 W/m2 CLR
09:26 -3.5 °C -9.7 °C 34313.7 hPa Calm     50 % 0 mm 455.0 W/m2 CLR
09:31 -3.3 °C -9.9 °C 34313.7 hPa Calm     48 % 0 mm 469.0 W/m2 CLR
09:36 -3 °C -9.8 °C 34313.7 hPa Calm     47 % 0 mm 485.0 W/m2 CLR
09:41 -2.9 °C -9.9 °C 34313.7 hPa Calm     46 % 0 mm 501.0 W/m2 CLR
09:46 -2.7 °C -9.8 °C 34313.7 hPa ENE 11.9 km/h 11.9 km/h 46 % 0 mm 517.0 W/m2 CLR
09:51 -2.6 °C -9.9 °C 34313.7 hPa ENE 3.1 km/h   44 % 0 mm 531.0 W/m2 CLR
09:56 -2.4 °C -10 °C 34313.7 hPa East 15 km/h 15 km/h 43 % 0 mm 545.0 W/m2 CLR
10:01 -2.3 °C -10.1 °C 34303.6 hPa East 15 km/h 15 km/h 42 % 0 mm 559.0 W/m2 CLR
10:06 -2.2 °C -9.8 °C 34303.6 hPa ENE 9 km/h 9 km/h 43 % 0 mm 575.0 W/m2 CLR
10:11 -2.1 °C -9.9 °C 34303.6 hPa Calm     42 % 0 mm 587.0 W/m2 CLR
10:16 -1.9 °C -9.6 °C 34303.6 hPa Calm     43 % 0 mm 601.0 W/m2 CLR
10:21 -1.7 °C -9.8 °C 34303.6 hPa ENE 17.9 km/h 17.9 km/h 41 % 0 mm 615.0 W/m2 CLR
10:26 -1.6 °C -9.9 °C 34303.6 hPa ENE 9 km/h   40 % 0 mm 631.0 W/m2 CLR
10:27 -1.6 °C -9.9 °C 34303.6 hPa Calm     40 % 0 mm 631.0 W/m2 CLR
10:32 -1.4 °C -10.4 °C 34293.4 hPa East 9 km/h 9 km/h 37 % 0 mm 645.0 W/m2 CLR
10:37 -1.4 °C -10.7 °C 34293.4 hPa East 17.9 km/h 17.9 km/h 36 % 0 mm 657.0 W/m2 CLR
10:42 -1.4 °C -10.7 °C 34293.4 hPa Calm     36 % 0 mm 673.0 W/m2 CLR
10:47 -1.2 °C -10.4 °C 34293.4 hPa ENE 15 km/h 15 km/h 36 % 0 mm 684.0 W/m2 CLR
10:52 -1.1 °C -10.6 °C 34293.4 hPa ESE 9 km/h 9 km/h 35 % 0 mm 696.0 W/m2 CLR
10:57 -1.1 °C -10.6 °C 34293.4 hPa ENE 9 km/h 9 km/h 35 % 0 mm 708.0 W/m2 CLR
11:02 -1 °C -10.3 °C 34293.4 hPa ENE 6 km/h 6 km/h 36 % 0 mm 721.0 W/m2 CLR
11:07 -0.9 °C -10.4 °C 34293.4 hPa ENE 6 km/h 6 km/h 35 % 0 mm 731.0 W/m2 CLR
11:12 -0.9 °C -10.7 °C 34293.4 hPa Calm     34 % 0 mm 744.0 W/m2 CLR
11:17 -0.8 °C -10.6 °C 34293.4 hPa East 11.9 km/h 11.9 km/h 34 % 0 mm 754.0 W/m2 CLR
11:22 -0.7 °C -10.2 °C 34279.9 hPa NNE 5.1 km/h 5.1 km/h 35 % 0 mm 766.0 W/m2 CLR
11:27 -0.5 °C -10.1 °C 34279.9 hPa East 15.6 km/h 15.6 km/h 35 % 0 mm 777.0 W/m2 CLR
11:32 -0.5 °C -9.8 °C 34279.9 hPa ENE 12.9 km/h 12.9 km/h 36 % 0 mm 786.0 W/m2 CLR
11:37 -0.4 °C -10.1 °C 34279.9 hPa ENE 17.9 km/h 17.9 km/h 35 % 0 mm 798.0 W/m2 CLR
11:42 -0.3 °C -9.9 °C 34279.9 hPa East 15 km/h 15 km/h 35 % 0 mm 805.0 W/m2 CLR
11:47 -0.4 °C -9.9 °C 34279.9 hPa East 18.2 km/h 18.2 km/h 35 % 0 mm 817.0 W/m2 CLR
11:52 -0.4 °C -9.9 °C 34269.7 hPa SSE 20.9 km/h 20.9 km/h 35 % 0 mm 826.0 W/m2 CLR
11:57 -0.2 °C -10.4 °C 34279.9 hPa East 29.8 km/h 29.8 km/h 33 % 0 mm 831.0 W/m2 CLR
12:02 -0.2 °C -10.6 °C 34269.7 hPa SE 23.8 km/h 23.8 km/h 32 % 0 mm 844.0 W/m2 CLR
12:07 -0.1 °C -10.5 °C 34269.7 hPa ESE 29.8 km/h 29.8 km/h 32 % 0 mm 851.0 W/m2 CLR
12:12 -0.1 °C -10.2 °C 34269.7 hPa ENE 23.8 km/h 23.8 km/h 33 % 0 mm 860.0 W/m2 CLR
12:17 0.1 °C -10.4 °C 34269.7 hPa ESE 26.9 km/h 26.9 km/h 32 % 0 mm 867.0 W/m2 CLR
12:22 0.2 °C -10.6 °C 34269.7 hPa East 29.8 km/h 29.8 km/h 31 % 0 mm 875.0 W/m2 CLR
12:27 0.2 °C -10.5 °C 34269.7 hPa ENE 17.9 km/h 17.9 km/h 31 % 0 mm 881.0 W/m2 CLR
12:32 0.3 °C -10.4 °C 34269.7 hPa NE 15.6 km/h 15.6 km/h 31 % 0 mm 882.0 W/m2 CLR
12:37 0.4 °C -10.3 °C 34269.7 hPa NE 29.8 km/h 29.8 km/h 31 % 0 mm 891.0 W/m2 CLR
12:42 0.6 °C -10.4 °C 34269.7 hPa East 17.9 km/h 17.9 km/h 30 % 0 mm 896.0 W/m2 CLR
12:47 0.7 °C -10.7 °C 34269.7 hPa East 20.8 km/h 20.8 km/h 29 % 0 mm 900.0 W/m2 CLR
12:52 0.6 °C -10.7 °C 34269.7 hPa East 20.9 km/h 20.9 km/h 29 % 0 mm 902.0 W/m2 CLR
12:57 0.8 °C -10.9 °C 34269.7 hPa SSE 15.6 km/h 15.6 km/h 28 % 0 mm 909.0 W/m2 CLR
13:02 0.9 °C -10.8 °C 34269.7 hPa SSE 15.6 km/h 15.6 km/h 28 % 0 mm 919.0 W/m2 CLR
13:07 1.1 °C -11.6 °C 34256.2 hPa SE 11.9 km/h   25 % 0 mm 925.0 W/m2 CLR
13:12 1.2 °C -10.9 °C 34256.2 hPa SE 12.9 km/h 12.9 km/h 27 % 0 mm 921.0 W/m2 CLR
13:17 1.1 °C -11.3 °C 34256.2 hPa ESE 23.8 km/h 23.8 km/h 26 % 0 mm 921.0 W/m2 CLR
13:22 1.2 °C -10.6 °C 34256.2 hPa ESE 12.9 km/h 12.9 km/h 28 % 0 mm 926.0 W/m2 CLR
13:27 1 °C -11 °C 34256.2 hPa NE 15 km/h 15 km/h 27 % 0 mm 928.0 W/m2 CLR
13:32 1.1 °C -10.9 °C 34256.2 hPa ESE 26.9 km/h 26.9 km/h 27 % 0 mm 932.0 W/m2 CLR
13:37 1.2 °C -10.8 °C 34256.2 hPa East 23.8 km/h 23.8 km/h 27 % 0 mm 932.0 W/m2 CLR
13:42 1.3 °C -11 °C 34256.2 hPa ESE 29.8 km/h 29.8 km/h 26 % 0 mm 937.0 W/m2 CLR
13:47 1.3 °C -11.1 °C 34246 hPa SE 32.8 km/h 32.8 km/h 26 % 0 mm 932.0 W/m2 CLR
13:52 1.3 °C -11 °C 34246 hPa SSE 29.8 km/h 29.8 km/h 26 % 0 mm 935.0 W/m2 CLR
13:57 1.3 °C -10.7 °C 34246 hPa East 35.7 km/h 35.7 km/h 27 % 0 mm 933.0 W/m2 CLR
14:02 1.2 °C -10.8 °C 34246 hPa SE 38.8 km/h 38.8 km/h 27 % 0 mm 935.0 W/m2 CLR
14:07 1.1 °C -10.6 °C 34246 hPa ENE 26.9 km/h 26.9 km/h 28 % 0 mm 932.0 W/m2 CLR
14:12 1.2 °C -10.8 °C 34246 hPa SSE 32.8 km/h 32.8 km/h 27 % 0 mm 937.0 W/m2 CLR
14:17 1.2 °C -10.6 °C 34246 hPa SSE 32.8 km/h 32.8 km/h 28 % 0 mm 932.0 W/m2 CLR
14:22 1.2 °C -10.6 °C 34246 hPa East 28.5 km/h 28.5 km/h 28 % 0 mm 933.0 W/m2 CLR
14:27 1.2 °C -10.5 °C 34246 hPa East 38.8 km/h 38.8 km/h 28 % 0 mm 932.0 W/m2 CLR
14:32 1.2 °C -10.2 °C 34246 hPa ESE 26.9 km/h 26.9 km/h 29 % 0 mm 926.0 W/m2 CLR
14:37 1.3 °C -10.2 °C 34246 hPa SE 35.7 km/h 35.7 km/h 29 % 0 mm 923.0 W/m2 CLR
14:42 1.2 °C -9.9 °C 34235.8 hPa ESE 23.8 km/h 23.8 km/h 30 % 0 mm 921.0 W/m2 CLR
14:47 1.3 °C -10.1 °C 34235.8 hPa East 38.8 km/h 38.8 km/h 29 % 0 mm 916.0 W/m2 CLR
14:52 1.3 °C -10.1 °C 34235.8 hPa ESE 26.9 km/h 26.9 km/h 29 % 0 mm 911.0 W/m2 CLR
14:57 1.4 °C -10 °C 34235.8 hPa ESE 23.8 km/h 23.8 km/h 29 % 0 mm 911.0 W/m2 CLR
15:02 1.3 °C -10.1 °C 34235.8 hPa ESE 38.8 km/h 38.8 km/h 29 % 0 mm 900.0 W/m2 CLR
15:07 1.3 °C -9.9 °C 34235.8 hPa ESE 38.8 km/h 38.8 km/h 30 % 0 mm 896.0 W/m2 CLR
15:12 1.3 °C -10.2 °C 34235.8 hPa ESE 35.7 km/h 35.7 km/h 29 % 0 mm 889.0 W/m2 CLR
15:17 1.3 °C -9.8 °C 34235.8 hPa SE 29.8 km/h 29.8 km/h 30 % 0 mm 886.0 W/m2 CLR
15:22 1.3 °C -10.2 °C 34222.3 hPa SE 29.8 km/h 29.8 km/h 29 % 0 mm 882.0 W/m2 CLR
15:28 1.2 °C -10.2 °C 34222.3 hPa ESE 38.8 km/h 38.8 km/h 29 % 0 mm 875.0 W/m2 CLR
15:33 1.3 °C -10.2 °C 34222.3 hPa ESE 26.9 km/h 26.9 km/h 29 % 0 mm 870.0 W/m2 CLR
15:38 1.3 °C -10.1 °C 34222.3 hPa East 35.7 km/h 35.7 km/h 29 % 0 mm 863.0 W/m2 CLR
15:43 1.5 °C -9.9 °C 34222.3 hPa SE 26.9 km/h 26.9 km/h 29 % 0 mm 856.0 W/m2 CLR
15:48 1.6 °C -10.2 °C 34222.3 hPa ESE 38.8 km/h 38.8 km/h 28 % 0 mm 847.0 W/m2 CLR
15:53 1.6 °C -9.9 °C 34222.3 hPa SE 15.6 km/h 15.6 km/h 29 % 0 mm 838.0 W/m2 CLR
15:58 1.6 °C -10.2 °C 34222.3 hPa SE 26.9 km/h 26.9 km/h 28 % 0 mm 831.0 W/m2 CLR
16:03 1.5 °C -9.9 °C 34212.1 hPa East 31.1 km/h 31.1 km/h 29 % 0 mm 823.0 W/m2 CLR
16:08 1.5 °C -10 °C 34212.1 hPa East 23.8 km/h 23.8 km/h 29 % 0 mm 809.0 W/m2 CLR
16:13 1.5 °C -10.2 °C 34212.1 hPa SE 41.7 km/h 41.7 km/h 28 % 0 mm 802.0 W/m2 CLR
16:18 1.6 °C -9.9 °C 34212.1 hPa ENE 41.7 km/h 41.7 km/h 29 % 0 mm 793.0 W/m2 CLR
16:23 1.6 °C -9.9 °C 34212.1 hPa SE 44.7 km/h 44.7 km/h 29 % 0 mm 782.0 W/m2 CLR
16:28 1.3 °C -9.8 °C 34212.1 hPa ENE 47.6 km/h 47.6 km/h 30 % 0 mm 770.0 W/m2 CLR
16:33 1.3 °C -9.5 °C 34212.1 hPa ESE 44.7 km/h 44.7 km/h 31 % 0 mm 761.0 W/m2 CLR
16:38 1.3 °C -9.8 °C 34198.6 hPa East 32.8 km/h 32.8 km/h 30 % 0 mm 752.0 W/m2 CLR
16:43 1.3 °C -9.5 °C 34212.1 hPa ESE 41.4 km/h 41.4 km/h 31 % 0 mm 745.0 W/m2 CLR
16:44 1.3 °C -9.8 °C 34212.1 hPa ESE 33.6 km/h 34.8 km/h 30 % 0 mm 742.0 W/m2 CLR
16:54 1.3 °C -9.8 °C 34198.6 hPa NE 32.8 km/h 32.8 km/h 30 % 0 mm 717.0 W/m2 CLR
16:59 1.4 °C -9.8 °C 34198.6 hPa East 36.2 km/h 36.2 km/h 30 % 0 mm 708.0 W/m2 CLR
17:04 1.4 °C -9.8 °C 34198.6 hPa ESE 41.7 km/h 41.7 km/h 30 % 0 mm 694.0 W/m2 CLR
17:09 1.3 °C -9.8 °C 34198.6 hPa ENE 32.8 km/h 32.8 km/h 30 % 0 mm 684.0 W/m2 CLR
17:14 1.3 °C -9.5 °C 34198.6 hPa East 29.8 km/h 29.8 km/h 31 % 0 mm 670.0 W/m2 CLR
17:19 1.4 °C -9.8 °C 34198.6 hPa ESE 44.7 km/h 44.7 km/h 30 % 0 mm 657.0 W/m2 CLR
17:24 1.3 °C -9.8 °C 34212.1 hPa ESE 35.7 km/h 35.7 km/h 30 % 0 mm 645.0 W/m2 CLR
17:29 1.3 °C -9.8 °C 34212.1 hPa East 33.6 km/h 33.6 km/h 30 % 0 mm 633.0 W/m2 CLR
17:34 1.3 °C -9.6 °C 34198.6 hPa ESE 38.8 km/h 38.8 km/h 31 % 0 mm 615.0 W/m2 CLR
17:39 1.3 °C -9.8 °C 34198.6 hPa SE 26.9 km/h 26.9 km/h 30 % 0 mm 603.0 W/m2 CLR
17:44 1.3 °C -9.8 °C 34198.6 hPa SE 35.7 km/h 35.7 km/h 30 % 0 mm 589.0 W/m2 CLR
17:49 1.3 °C -9.8 °C 34198.6 hPa ESE 35.7 km/h 35.7 km/h 30 % 0 mm 571.0 W/m2 CLR
17:54 1.2 °C -10.2 °C 34198.6 hPa SE 35.7 km/h 35.7 km/h 29 % 0 mm 557.0 W/m2 CLR
17:59 1.2 °C -10.2 °C 34198.6 hPa ESE 29.8 km/h 29.8 km/h 29 % 0 mm 545.0 W/m2 CLR
18:04 1.3 °C -10.2 °C 34198.6 hPa SE 32.8 km/h 32.8 km/h 29 % 0 mm 529.0 W/m2 CLR
18:09 1.2 °C -10.3 °C 34198.6 hPa South 41.7 km/h 41.7 km/h 29 % 0 mm 517.0 W/m2 CLR
18:14 1.1 °C -10.1 °C 34198.6 hPa ESE 38.8 km/h 38.8 km/h 30 % 0 mm 499.0 W/m2 CLR
18:19 1.1 °C -10.1 °C 34198.6 hPa SE 41.7 km/h 41.7 km/h 30 % 0 mm 483.0 W/m2 CLR
18:24 0.9 °C -9.9 °C 34198.6 hPa ESE 38.8 km/h 38.8 km/h 31 % 0 mm 469.0 W/m2 CLR
18:25 0.9 °C -9.6 °C 34198.6 hPa SE 36.2 km/h 36.2 km/h 32 % 0 mm 468.0 W/m2 CLR
18:30 0.9 °C -9.4 °C 34198.6 hPa ESE 38.8 km/h 38.8 km/h 33 % 0 mm 454.0 W/m2 CLR
18:35 0.8 °C -9.2 °C 34198.6 hPa SE 41.7 km/h 41.7 km/h 34 % 0 mm 438.0 W/m2 CLR
18:36 0.8 °C -9.2 °C 34198.6 hPa SE 35.7 km/h 35.7 km/h 34 % 0 mm 436.0 W/m2 CLR
18:41 0.8 °C -9.2 °C 34198.6 hPa SE 35.7 km/h 35.7 km/h 34 % 0 mm 422.0 W/m2 CLR
18:46 0.8 °C -8.9 °C 34198.6 hPa SE 32.8 km/h 32.8 km/h 35 % 0 mm 408.0 W/m2 CLR
18:51 0.8 °C -9.2 °C 34198.6 hPa SSE 29.8 km/h 29.8 km/h 34 % 0 mm 394.0 W/m2 CLR
18:56 0.9 °C -9.1 °C 34198.6 hPa SE 26.9 km/h 26.9 km/h 34 % 0 mm 376.0 W/m2 CLR
19:01 0.8 °C -9.5 °C 34198.6 hPa ESE 31.1 km/h 31.1 km/h 33 % 0 mm 360.0 W/m2 CLR
19:06 0.8 °C -9.5 °C 34198.6 hPa SE 38.8 km/h 38.8 km/h 33 % 0 mm 345.0 W/m2 CLR
19:11 0.6 °C -9.3 °C 34198.6 hPa SSE 29.8 km/h 29.8 km/h 34 % 0 mm 332.0 W/m2 CLR
19:16 0.6 °C -9.4 °C 34198.6 hPa SE 29.8 km/h 29.8 km/h 34 % 0 mm 313.0 W/m2 CLR
19:21 0.5 °C -9.4 °C 34198.6 hPa SE 31.1 km/h 31.1 km/h 34 % 0 mm 299.0 W/m2 CLR
19:26 0.4 °C -9.5 °C 34198.6 hPa SE 32.8 km/h 32.8 km/h 34 % 0 mm 285.0 W/m2 CLR
19:31 0.4 °C -9.3 °C 34198.6 hPa ESE 32.8 km/h 32.8 km/h 35 % 0 mm 271.0 W/m2 CLR
19:36 0.3 °C -9.3 °C 34198.6 hPa SE 35.7 km/h 35.7 km/h 35 % 0 mm 257.0 W/m2 CLR
19:41 0.2 °C -9.4 °C 34198.6 hPa SSE 38.8 km/h 38.8 km/h 35 % 0 mm 239.0 W/m2 CLR
19:46 0.2 °C -9.5 °C 34198.6 hPa SE 41.7 km/h 41.7 km/h 35 % 0 mm 223.0 W/m2 CLR
19:51 0.1 °C -9.3 °C 34198.6 hPa SE 44.7 km/h 44.7 km/h 36 % 0 mm 209.0 W/m2 CLR
19:56 0.1 °C -9.6 °C 34198.6 hPa SE 31.1 km/h 31.1 km/h 35 % 0 mm 193.0 W/m2 CLR
20:01 0 °C -9.4 °C 34212.1 hPa SSE 41.4 km/h 41.4 km/h 36 % 0 mm 174.0 W/m2 CLR
20:06 -0.1 °C -9.5 °C 34212.1 hPa SE 38.8 km/h 38.8 km/h 36 % 0 mm 158.0 W/m2 CLR
20:11 -0.2 °C -9.8 °C 34212.1 hPa SE 32.8 km/h 32.8 km/h 35 % 0 mm 142.0 W/m2 CLR
20:16 -0.3 °C -9.9 °C 34212.1 hPa SSE 44.7 km/h 44.7 km/h 35 % 0 mm 127.0 W/m2 CLR
20:21 -0.4 °C -9.9 °C 34212.1 hPa SSE 32.8 km/h 32.8 km/h 35 % 0 mm 113.0 W/m2 CLR
20:26 -0.4 °C -10 °C 34212.1 hPa SSE 29.8 km/h 29.8 km/h 35 % 0 mm 97.0 W/m2 CLR
20:31 -0.4 °C -9.8 °C 34212.1 hPa SE 29.8 km/h 29.8 km/h 36 % 0 mm 83.0 W/m2 CLR
20:36 -0.6 °C -9.9 °C 34212.1 hPa SE 29.8 km/h 29.8 km/h 36 % 0 mm 72.0 W/m2 FEW
20:41 -0.7 °C -9.9 °C 34198.6 hPa SE 33.6 km/h 33.6 km/h 36 % 0 mm 60.0 W/m2 SCT
20:46 -0.7 °C -10.1 °C 34198.6 hPa SSE 26.9 km/h 26.9 km/h 36 % 0 mm 33.0 W/m2 BKN
20:51 -0.8 °C -10.1 °C 34198.6 hPa SE 29.8 km/h 29.8 km/h 36 % 0 mm 37.0 W/m2 BKN
20:57 -0.8 °C -10.4 °C 34198.6 hPa SSE 35.7 km/h 35.7 km/h 35 % 0 mm 26.0 W/m2 BKN
21:02 -0.9 °C -10.2 °C 34198.6 hPa SE 36.2 km/h 36.2 km/h 36 % 0 mm 21.0 W/m2 BKN
21:07 -1 °C -10.3 °C 34198.6 hPa SSE 26.9 km/h 26.9 km/h 36 % 0 mm 18.0 W/m2 BKN
21:12 -1.1 °C -10.4 °C 34198.6 hPa South 29.8 km/h 29.8 km/h 36 % 0 mm 12.0 W/m2 BKN
21:17 -1.2 °C -10.4 °C 34212.1 hPa South 29.8 km/h 29.8 km/h 36 % 0 mm 9.0 W/m2 BKN
21:22 -1.2 °C -11.2 °C 34212.1 hPa SSE 23.8 km/h 23.8 km/h 33 % 0 mm 7.0 W/m2 BKN
21:27 -1.3 °C -11.5 °C 34212.1 hPa SSE 23.8 km/h 23.8 km/h 32 % 0 mm 5.0 W/m2 OVC
21:32 -1.3 °C -11.6 °C 34212.1 hPa SSE 32.8 km/h 32.8 km/h 32 % 0 mm 0.0 W/m2 OVC
21:37 -1.4 °C -11.6 °C 34212.1 hPa South 23.8 km/h 23.8 km/h 32 % 0 mm 0.0 W/m2 OVC
21:42 -1.5 °C -11.7 °C 34212.1 hPa South 38.8 km/h 38.8 km/h 32 % 0 mm 0.0 W/m2 OVC
21:47 -1.6 °C -11.8 °C 34212.1 hPa South 41.7 km/h 41.7 km/h 32 % 0 mm 0.0 W/m2 CLR
21:52 -1.7 °C -11.9 °C 34212.1 hPa South 44.7 km/h 44.7 km/h 32 % 0 mm 0.0 W/m2 CLR
21:57 -1.7 °C -11.7 °C 34212.1 hPa South 35.7 km/h 35.7 km/h 33 % 0 mm 0.0 W/m2 CLR
22:02 -1.8 °C -11.7 °C 34222.3 hPa SSW 17.9 km/h 17.9 km/h 33 % 0 mm 0.0 W/m2 CLR
22:07 -1.8 °C -11.8 °C 34222.3 hPa South 20.9 km/h 20.9 km/h 33 % 0 mm 0.0 W/m2 CLR
22:12 -1.9 °C -11.8 °C 34222.3 hPa South 29.8 km/h 29.8 km/h 33 % 0 mm 0.0 W/m2 CLR
22:17 -1.9 °C -11.8 °C 34222.3 hPa South 31.1 km/h 31.1 km/h 33 % 0 mm 0.0 W/m2 CLR
22:22 -1.9 °C -11.8 °C 34222.3 hPa South 26.9 km/h 26.9 km/h 33 % 0 mm 0.0 W/m2 CLR
22:27 -2 °C -11.9 °C 34235.8 hPa South 29.8 km/h 29.8 km/h 33 % 0 mm 0.0 W/m2 CLR
22:32 -2 °C -11.9 °C 34235.8 hPa South 23.8 km/h 23.8 km/h 33 % 0 mm 0.0 W/m2 CLR
22:37 -2.1 °C -11.9 °C 34222.3 hPa SSW 17.9 km/h 17.9 km/h 33 % 0 mm 0.0 W/m2 CLR
22:42 -2.1 °C -12 °C 34235.8 hPa SSW 18.2 km/h 18.2 km/h 33 % 0 mm 0.0 W/m2 CLR
22:47 -2.2 °C -12.1 °C 34235.8 hPa Calm     33 % 0 mm 0.0 W/m2 CLR
22:52 -2.2 °C -12.3 °C 34235.8 hPa Calm     32 % 0 mm 0.0 W/m2 CLR
22:57 -2.3 °C -12.2 °C 34235.8 hPa Calm     33 % 0 mm 0.0 W/m2 CLR
23:02 -2.3 °C -12.4 °C 34235.8 hPa South 12.9 km/h 12.9 km/h 32 % 0 mm 0.0 W/m2 CLR
23:08 -2.4 °C -12.5 °C 34235.8 hPa SSW 6 km/h 6 km/h 32 % 0 mm 0.0 W/m2 CLR
23:13 -2.4 °C -12.6 °C 34235.8 hPa Calm     32 % 0 mm 0.0 W/m2 CLR
23:18 -2.5 °C -12.6 °C 34246 hPa Calm     32 % 0 mm 0.0 W/m2 CLR
23:23 -2.6 °C -12.4 °C 34246 hPa Calm     33 % 0 mm 0.0 W/m2 CLR
23:28 -2.6 °C -12.7 °C 34246 hPa Calm     32 % 0 mm 0.0 W/m2 CLR
23:33 -2.7 °C -12.8 °C 34246 hPa Calm     32 % 0 mm 0.0 W/m2 CLR
23:38 -2.8 °C -12.8 °C 34246 hPa Calm     32 % 0 mm 0.0 W/m2 CLR
23:43 -2.9 °C -12.9 °C 34246 hPa Calm     32 % 0 mm 0.0 W/m2 CLR
23:48 -2.9 °C -12.7 °C 34246 hPa Calm     33 % 0 mm 0.0 W/m2 CLR
23:53 -3.1 °C -12.8 °C 34246 hPa Calm     33 % 0 mm 0.0 W/m2 CLR
23:58 -3.2 °C -12.2 °C 34246 hPa Calm     36 % 0 mm 0.0 W/m2 CLR
Lo Temps de Massalio
Compliments of Weather Underground - 1.25 mb